Year,Month,Day,Hour,Minute,Value (Times are PST for temperature in C)
2010,08,22,00,00,13.90
2010,08,22,00,01,13.90
2010,08,22,00,02,13.90
2010,08,22,00,03,13.90
2010,08,22,00,04,13.90
2010,08,22,00,05,13.90
2010,08,22,00,06,13.90
2010,08,22,00,07,13.90
2010,08,22,00,08,13.90
2010,08,22,00,09,13.80
2010,08,22,00,10,13.80
2010,08,22,00,11,13.80
2010,08,22,00,12,13.70
2010,08,22,00,13,13.60
2010,08,22,00,14,13.50
2010,08,22,00,15,13.40
2010,08,22,00,16,13.30
2010,08,22,00,17,13.30
2010,08,22,00,18,13.20
2010,08,22,00,19,13.10
2010,08,22,00,20,13.10
2010,08,22,00,21,13.00
2010,08,22,00,22,13.00
2010,08,22,00,23,12.90
2010,08,22,00,24,12.80
2010,08,22,00,25,12.80
2010,08,22,00,26,12.70
2010,08,22,00,27,12.70
2010,08,22,00,28,12.70
2010,08,22,00,29,12.70
2010,08,22,00,30,12.60
2010,08,22,00,31,12.60
2010,08,22,00,32,12.60
2010,08,22,00,33,12.50
2010,08,22,00,34,12.50
2010,08,22,00,35,12.40
2010,08,22,00,36,12.40
2010,08,22,00,37,12.30
2010,08,22,00,38,12.30
2010,08,22,00,39,12.30
2010,08,22,00,40,12.20
2010,08,22,00,41,12.20
2010,08,22,00,42,12.10
2010,08,22,00,43,12.00
2010,08,22,00,44,11.90
2010,08,22,00,45,11.90
2010,08,22,00,46,11.80
2010,08,22,00,47,11.80
2010,08,22,00,48,11.70
2010,08,22,00,49,11.70
2010,08,22,00,50,11.60
2010,08,22,00,51,11.60
2010,08,22,00,52,11.50
2010,08,22,00,53,11.50
2010,08,22,00,54,11.40
2010,08,22,00,55,11.40
2010,08,22,00,56,11.40
2010,08,22,00,57,11.40
2010,08,22,00,58,11.30
2010,08,22,00,59,11.30
2010,08,22,01,00,11.30
2010,08,22,01,01,11.30
2010,08,22,01,02,11.30
2010,08,22,01,03,11.30
2010,08,22,01,04,11.30
2010,08,22,01,05,11.20
2010,08,22,01,06,11.20
2010,08,22,01,07,11.20
2010,08,22,01,08,11.20
2010,08,22,01,09,11.20
2010,08,22,01,10,11.10
2010,08,22,01,11,11.10
2010,08,22,01,12,11.10
2010,08,22,01,13,11.10
2010,08,22,01,14,11.10
2010,08,22,01,15,11.10
2010,08,22,01,16,11.00
2010,08,22,01,17,11.00
2010,08,22,01,18,10.90
2010,08,22,01,19,10.90
2010,08,22,01,20,10.90
2010,08,22,01,21,10.80
2010,08,22,01,22,10.80
2010,08,22,01,23,10.80
2010,08,22,01,24,10.80
2010,08,22,01,25,10.70
2010,08,22,01,26,10.70
2010,08,22,01,27,10.70
2010,08,22,01,28,10.60
2010,08,22,01,29,10.60
2010,08,22,01,30,10.60
2010,08,22,01,31,10.60
2010,08,22,01,32,10.60
2010,08,22,01,33,10.50
2010,08,22,01,34,10.50
2010,08,22,01,35,10.50
2010,08,22,01,36,10.50
2010,08,22,01,37,10.40
2010,08,22,01,38,10.40
2010,08,22,01,39,10.30
2010,08,22,01,40,10.30
2010,08,22,01,41,10.30
2010,08,22,01,42,10.30
2010,08,22,01,43,10.20
2010,08,22,01,44,10.20
2010,08,22,01,45,10.20
2010,08,22,01,46,10.20
2010,08,22,01,47,10.10
2010,08,22,01,48,10.10
2010,08,22,01,49,10.00
2010,08,22,01,50,10.00
2010,08,22,01,51,9.90
2010,08,22,01,52,9.90
2010,08,22,01,53,9.90
2010,08,22,01,54,9.80
2010,08,22,01,55,9.80
2010,08,22,01,56,9.80
2010,08,22,01,57,9.70
2010,08,22,01,58,9.70
2010,08,22,01,59,9.70
2010,08,22,02,00,9.70
2010,08,22,02,01,9.70
2010,08,22,02,02,9.70
2010,08,22,02,03,9.60
2010,08,22,02,04,9.60
2010,08,22,02,05,9.60
2010,08,22,02,06,9.60
2010,08,22,02,07,9.60
2010,08,22,02,08,9.60
2010,08,22,02,09,9.60
2010,08,22,02,10,9.60
2010,08,22,02,11,9.60
2010,08,22,02,12,9.60
2010,08,22,02,13,9.60
2010,08,22,02,14,9.60
2010,08,22,02,15,9.60
2010,08,22,02,16,9.60
2010,08,22,02,17,9.60
2010,08,22,02,18,9.60
2010,08,22,02,19,9.60
2010,08,22,02,20,9.60
2010,08,22,02,21,9.60
2010,08,22,02,22,9.60
2010,08,22,02,23,9.60
2010,08,22,02,24,9.60
2010,08,22,02,25,9.60
2010,08,22,02,26,9.60
2010,08,22,02,27,9.60
2010,08,22,02,28,9.60
2010,08,22,02,29,9.60
2010,08,22,02,30,9.60
2010,08,22,02,31,9.60
2010,08,22,02,32,9.50
2010,08,22,02,33,9.50
2010,08,22,02,34,9.50
2010,08,22,02,35,9.50
2010,08,22,02,36,9.40
2010,08,22,02,37,9.40
2010,08,22,02,38,9.40
2010,08,22,02,39,9.40
2010,08,22,02,40,9.40
2010,08,22,02,41,9.40
2010,08,22,02,42,9.40
2010,08,22,02,43,9.40
2010,08,22,02,44,9.40
2010,08,22,02,45,9.40
2010,08,22,02,46,9.40
2010,08,22,02,47,9.40
2010,08,22,02,48,9.30
2010,08,22,02,49,9.30
2010,08,22,02,50,9.30
2010,08,22,02,51,9.40
2010,08,22,02,52,9.40
2010,08,22,02,53,9.40
2010,08,22,02,54,9.40
2010,08,22,02,55,9.30
2010,08,22,02,56,9.30
2010,08,22,02,57,9.30
2010,08,22,02,58,9.30
2010,08,22,02,59,9.30
2010,08,22,03,00,9.30
2010,08,22,03,01,9.30
2010,08,22,03,02,9.30
2010,08,22,03,06,9.30
2010,08,22,03,07,9.30
2010,08,22,03,08,9.30
2010,08,22,03,09,9.30
2010,08,22,03,10,9.40
2010,08,22,03,11,9.40
2010,08,22,03,12,9.40
2010,08,22,03,13,9.40
2010,08,22,03,14,9.40
2010,08,22,03,15,9.50
2010,08,22,03,16,9.50
2010,08,22,03,17,9.50
2010,08,22,03,18,9.50
2010,08,22,03,19,9.60
2010,08,22,03,20,9.60
2010,08,22,03,21,9.60
2010,08,22,03,22,9.60
2010,08,22,03,23,9.60
2010,08,22,03,24,9.60
2010,08,22,03,25,9.60
2010,08,22,03,26,9.60
2010,08,22,03,27,9.60
2010,08,22,03,28,9.70
2010,08,22,03,29,9.70
2010,08,22,03,30,9.70
2010,08,22,03,31,9.70
2010,08,22,03,32,9.70
2010,08,22,03,33,9.70
2010,08,22,03,34,9.80
2010,08,22,03,35,9.80
2010,08,22,03,36,9.80
2010,08,22,03,37,9.80
2010,08,22,03,38,9.80
2010,08,22,03,39,9.80
2010,08,22,03,40,9.80
2010,08,22,03,41,9.80
2010,08,22,03,42,9.80
2010,08,22,03,43,9.80
2010,08,22,03,44,9.80
2010,08,22,03,45,9.80
2010,08,22,03,46,9.80
2010,08,22,03,47,9.80
2010,08,22,03,48,9.80
2010,08,22,03,49,9.80
2010,08,22,03,50,9.80
2010,08,22,03,51,9.90
2010,08,22,03,52,9.90
2010,08,22,03,53,9.90
2010,08,22,03,54,9.90
2010,08,22,03,55,9.90
2010,08,22,03,56,9.80
2010,08,22,03,57,9.80
2010,08,22,03,58,9.80
2010,08,22,03,59,9.80
2010,08,22,04,00,9.80
2010,08,22,04,01,9.80
2010,08,22,04,02,9.80
2010,08,22,04,03,9.80
2010,08,22,04,04,9.70
2010,08,22,04,05,9.70
2010,08,22,04,06,9.70
2010,08,22,04,07,9.70
2010,08,22,04,08,9.70
2010,08,22,04,09,9.70
2010,08,22,04,10,9.70
2010,08,22,04,11,9.70
2010,08,22,04,12,9.70
2010,08,22,04,13,9.70
2010,08,22,04,14,9.80
2010,08,22,04,15,9.80
2010,08,22,04,16,9.80
2010,08,22,04,17,9.80
2010,08,22,04,18,9.80
2010,08,22,04,19,9.80
2010,08,22,04,20,9.80
2010,08,22,04,21,9.80
2010,08,22,04,22,9.80
2010,08,22,04,23,9.90
2010,08,22,04,24,9.90
2010,08,22,04,25,9.90
2010,08,22,04,26,9.90
2010,08,22,04,27,9.90
2010,08,22,04,28,10.00
2010,08,22,04,29,10.00
2010,08,22,04,30,10.10
2010,08,22,04,31,10.10
2010,08,22,04,32,10.10
2010,08,22,04,33,10.20
2010,08,22,04,34,10.20
2010,08,22,04,35,10.20
2010,08,22,04,36,10.20
2010,08,22,04,37,10.20
2010,08,22,04,38,10.20
2010,08,22,04,39,10.30
2010,08,22,04,40,10.30
2010,08,22,04,41,10.30
2010,08,22,04,42,10.30
2010,08,22,04,43,10.30
2010,08,22,04,44,10.30
2010,08,22,04,45,10.30
2010,08,22,04,46,10.30
2010,08,22,04,47,10.30
2010,08,22,04,48,10.40
2010,08,22,04,49,10.40
2010,08,22,04,50,10.40
2010,08,22,04,51,10.40
2010,08,22,04,52,10.40
2010,08,22,04,53,10.40
2010,08,22,04,54,10.40
2010,08,22,04,55,10.50
2010,08,22,04,56,10.50
2010,08,22,04,57,10.50
2010,08,22,04,58,10.50
2010,08,22,04,59,10.60
2010,08,22,05,00,10.60
2010,08,22,05,01,10.60
2010,08,22,05,02,10.60
2010,08,22,05,03,10.60
2010,08,22,05,04,10.60
2010,08,22,05,05,10.60
2010,08,22,05,06,10.60
2010,08,22,05,07,10.60
2010,08,22,05,08,10.70
2010,08,22,05,09,10.70
2010,08,22,05,10,10.70
2010,08,22,05,11,10.70
2010,08,22,05,12,10.70
2010,08,22,05,13,10.70
2010,08,22,05,14,10.70
2010,08,22,05,15,10.70
2010,08,22,05,16,10.70
2010,08,22,05,17,10.70
2010,08,22,05,18,10.70
2010,08,22,05,19,10.80
2010,08,22,05,20,10.80
2010,08,22,05,21,10.80
2010,08,22,05,22,10.80
2010,08,22,05,23,10.80
2010,08,22,05,24,10.80
2010,08,22,05,25,10.80
2010,08,22,05,26,10.80
2010,08,22,05,27,10.90
2010,08,22,05,28,10.90
2010,08,22,05,29,10.90
2010,08,22,05,30,10.90
2010,08,22,05,31,10.90
2010,08,22,05,32,10.90
2010,08,22,05,33,10.90
2010,08,22,05,34,10.90
2010,08,22,05,35,10.90
2010,08,22,05,36,10.90
2010,08,22,05,37,10.90
2010,08,22,05,38,10.90
2010,08,22,05,39,10.90
2010,08,22,05,40,10.90
2010,08,22,05,41,11.00
2010,08,22,05,42,11.00
2010,08,22,05,43,11.00
2010,08,22,05,44,11.00
2010,08,22,05,45,11.10
2010,08,22,05,46,11.10
2010,08,22,05,47,11.10
2010,08,22,05,48,11.10
2010,08,22,05,49,11.10
2010,08,22,05,50,11.10
2010,08,22,05,51,11.10
2010,08,22,05,52,11.10
2010,08,22,05,53,11.10
2010,08,22,05,54,11.10
2010,08,22,05,55,11.10
2010,08,22,05,56,11.10
2010,08,22,05,57,11.10
2010,08,22,05,58,11.10
2010,08,22,05,59,11.10
2010,08,22,06,00,11.00
2010,08,22,06,01,11.00
2010,08,22,06,02,11.00
2010,08,22,06,03,11.00
2010,08,22,06,04,10.90
2010,08,22,06,05,10.90
2010,08,22,06,06,10.90
2010,08,22,06,07,10.90
2010,08,22,06,08,10.90
2010,08,22,06,09,10.80
2010,08,22,06,10,10.80
2010,08,22,06,11,10.80
2010,08,22,06,12,10.80
2010,08,22,06,13,10.80
2010,08,22,06,14,10.80
2010,08,22,06,15,10.70
2010,08,22,06,16,10.70
2010,08,22,06,17,10.70
2010,08,22,06,18,10.70
2010,08,22,06,19,10.70
2010,08,22,06,20,10.60
2010,08,22,06,21,10.60
2010,08,22,06,22,10.60
2010,08,22,06,23,10.60
2010,08,22,06,24,10.60
2010,08,22,06,25,10.60
2010,08,22,06,26,10.50
2010,08,22,06,27,10.50
2010,08,22,06,28,10.50
2010,08,22,06,29,10.40
2010,08,22,06,30,10.40
2010,08,22,06,31,10.40
2010,08,22,06,32,10.40
2010,08,22,06,33,10.40
2010,08,22,06,34,10.30
2010,08,22,06,35,10.30
2010,08,22,06,36,10.30
2010,08,22,06,37,10.30
2010,08,22,06,38,10.20
2010,08,22,06,39,10.20
2010,08,22,06,40,10.20
2010,08,22,06,41,10.20
2010,08,22,06,42,10.20
2010,08,22,06,43,10.20
2010,08,22,06,44,10.20
2010,08,22,06,45,10.20
2010,08,22,06,46,10.10
2010,08,22,06,47,10.10
2010,08,22,06,48,10.10
2010,08,22,06,49,10.10
2010,08,22,06,50,10.10
2010,08,22,06,51,10.10
2010,08,22,06,52,10.10
2010,08,22,06,53,10.10
2010,08,22,06,54,10.00
2010,08,22,06,55,10.10
2010,08,22,06,56,10.00
2010,08,22,06,57,10.00
2010,08,22,06,58,10.00
2010,08,22,06,59,10.00
2010,08,22,07,00,10.10
2010,08,22,07,01,10.10
2010,08,22,07,02,10.10
2010,08,22,07,03,10.10
2010,08,22,07,04,10.10
2010,08,22,07,05,10.10
2010,08,22,07,06,10.10
2010,08,22,07,07,10.10
2010,08,22,07,08,10.10
2010,08,22,07,09,10.10
2010,08,22,07,10,10.10
2010,08,22,07,11,10.10
2010,08,22,07,12,10.20
2010,08,22,07,13,10.20
2010,08,22,07,14,10.20
2010,08,22,07,15,10.20
2010,08,22,07,16,10.20
2010,08,22,07,17,10.30
2010,08,22,07,18,10.30
2010,08,22,07,19,10.30
2010,08,22,07,20,10.40
2010,08,22,07,21,10.40
2010,08,22,07,22,10.40
2010,08,22,07,23,10.50
2010,08,22,07,24,10.50
2010,08,22,07,25,10.60
2010,08,22,07,26,10.60
2010,08,22,07,27,10.70
2010,08,22,07,28,10.70
2010,08,22,07,29,10.70
2010,08,22,07,30,10.80
2010,08,22,07,31,10.80
2010,08,22,07,32,10.80
2010,08,22,07,33,10.90
2010,08,22,07,34,10.90
2010,08,22,07,35,10.90
2010,08,22,07,36,11.00
2010,08,22,07,37,11.00
2010,08,22,07,38,11.10
2010,08,22,07,39,11.10
2010,08,22,07,40,11.10
2010,08,22,07,41,11.20
2010,08,22,07,42,11.20
2010,08,22,07,43,11.20
2010,08,22,07,44,11.20
2010,08,22,07,45,11.30
2010,08,22,07,46,11.30
2010,08,22,07,47,11.40
2010,08,22,07,48,11.40
2010,08,22,07,49,11.50
2010,08,22,07,50,11.50
2010,08,22,07,51,11.60
2010,08,22,07,52,11.60
2010,08,22,07,53,11.60
2010,08,22,07,54,11.70
2010,08,22,07,55,11.70
2010,08,22,07,56,11.80
2010,08,22,07,57,11.80
2010,08,22,07,58,11.80
2010,08,22,07,59,11.80
2010,08,22,08,00,11.80
2010,08,22,08,01,11.90
2010,08,22,08,02,11.90
2010,08,22,08,03,11.90
2010,08,22,08,04,12.00
2010,08,22,08,05,12.00
2010,08,22,08,06,12.00
2010,08,22,08,07,12.10
2010,08,22,08,08,12.10
2010,08,22,08,09,12.10
2010,08,22,08,10,12.20
2010,08,22,08,11,12.20
2010,08,22,08,12,12.20
2010,08,22,08,13,12.30
2010,08,22,08,14,12.30
2010,08,22,08,15,12.30
2010,08,22,08,16,12.40
2010,08,22,08,17,12.40
2010,08,22,08,18,12.50
2010,08,22,08,19,12.50
2010,08,22,08,20,12.60
2010,08,22,08,21,12.60
2010,08,22,08,22,12.70
2010,08,22,08,23,12.70
2010,08,22,08,24,12.80
2010,08,22,08,25,12.80
2010,08,22,08,26,12.80
2010,08,22,08,27,12.90
2010,08,22,08,28,12.90
2010,08,22,08,29,13.00
2010,08,22,08,30,13.10
2010,08,22,08,31,13.10
2010,08,22,08,32,13.10
2010,08,22,08,33,13.20
2010,08,22,08,34,13.20
2010,08,22,08,35,13.30
2010,08,22,08,36,13.40
2010,08,22,08,37,13.40
2010,08,22,08,38,13.50
2010,08,22,08,39,13.50
2010,08,22,08,40,13.60
2010,08,22,08,41,13.70
2010,08,22,08,42,13.80
2010,08,22,08,43,13.90
2010,08,22,08,44,14.00
2010,08,22,08,45,14.10
2010,08,22,08,46,14.20
2010,08,22,08,47,14.30
2010,08,22,08,48,14.40
2010,08,22,08,49,14.50
2010,08,22,08,50,14.70
2010,08,22,08,51,15.00
2010,08,22,08,52,15.00
2010,08,22,08,53,15.20
2010,08,22,08,54,15.40
2010,08,22,08,55,15.50
2010,08,22,08,56,15.60
2010,08,22,08,57,15.70
2010,08,22,08,58,15.80
2010,08,22,08,59,15.80
2010,08,22,09,00,15.90
2010,08,22,09,01,16.00
2010,08,22,09,02,16.10
2010,08,22,09,03,16.20
2010,08,22,09,04,16.20
2010,08,22,09,05,16.20
2010,08,22,09,06,16.20
2010,08,22,09,07,16.30
2010,08,22,09,08,16.30
2010,08,22,09,09,16.30
2010,08,22,09,10,16.30
2010,08,22,09,11,16.30
2010,08,22,09,12,16.30
2010,08,22,09,13,16.30
2010,08,22,09,14,16.30
2010,08,22,09,15,16.30
2010,08,22,09,16,16.30
2010,08,22,09,17,16.40
2010,08,22,09,18,16.40
2010,08,22,09,19,16.50
2010,08,22,09,20,16.60
2010,08,22,09,21,16.70
2010,08,22,09,22,16.80
2010,08,22,09,23,16.90
2010,08,22,09,24,17.00
2010,08,22,09,25,17.10
2010,08,22,09,26,17.20
2010,08,22,09,27,17.30
2010,08,22,09,28,17.40
2010,08,22,09,29,17.40
2010,08,22,09,30,17.60
2010,08,22,09,31,17.70
2010,08,22,09,32,17.80
2010,08,22,09,33,18.00
2010,08,22,09,34,18.00
2010,08,22,09,35,18.00
2010,08,22,09,36,18.00
2010,08,22,09,37,18.00
2010,08,22,09,38,18.00
2010,08,22,09,39,18.00
2010,08,22,09,40,18.10
2010,08,22,09,41,18.10
2010,08,22,09,42,18.10
2010,08,22,09,43,18.10
2010,08,22,09,44,18.10
2010,08,22,09,45,18.10
2010,08,22,09,46,18.00
2010,08,22,09,47,17.90
2010,08,22,09,48,17.90
2010,08,22,09,49,17.80
2010,08,22,09,50,17.80
2010,08,22,09,51,17.70
2010,08,22,09,52,17.70
2010,08,22,09,53,17.60
2010,08,22,09,54,17.60
2010,08,22,09,55,17.50
2010,08,22,09,56,17.40
2010,08,22,09,57,17.30
2010,08,22,09,58,17.20
2010,08,22,09,59,17.10
2010,08,22,10,00,17.00
2010,08,22,10,01,17.00
2010,08,22,10,02,16.90
2010,08,22,10,03,16.90
2010,08,22,10,04,16.90
2010,08,22,10,05,16.90
2010,08,22,10,06,16.90
2010,08,22,10,07,16.90
2010,08,22,10,08,16.80
2010,08,22,10,09,16.90
2010,08,22,10,10,16.90
2010,08,22,10,11,16.90
2010,08,22,10,12,16.90
2010,08,22,10,13,16.90
2010,08,22,10,14,16.90
2010,08,22,10,15,16.90
2010,08,22,10,16,17.00
2010,08,22,10,17,17.00
2010,08,22,10,18,17.10
2010,08,22,10,19,17.00
2010,08,22,10,20,17.00
2010,08,22,10,21,17.00
2010,08,22,10,22,16.90
2010,08,22,10,23,16.90
2010,08,22,10,24,16.90
2010,08,22,10,25,16.90
2010,08,22,10,26,16.90
2010,08,22,10,27,17.00
2010,08,22,10,28,17.00
2010,08,22,10,29,17.00
2010,08,22,10,30,17.10
2010,08,22,10,31,17.10
2010,08,22,10,32,17.10
2010,08,22,10,33,17.00
2010,08,22,10,34,17.00
2010,08,22,10,35,17.00
2010,08,22,10,36,16.90
2010,08,22,10,37,16.90
2010,08,22,10,38,16.90
2010,08,22,10,39,16.90
2010,08,22,10,40,16.90
2010,08,22,10,41,16.90
2010,08,22,10,42,17.00
2010,08,22,10,43,17.10
2010,08,22,10,44,17.10
2010,08,22,10,45,17.20
2010,08,22,10,46,17.30
2010,08,22,10,47,17.40
2010,08,22,10,48,17.50
2010,08,22,10,49,17.70
2010,08,22,10,50,17.80
2010,08,22,10,51,17.90
2010,08,22,10,52,18.00
2010,08,22,10,53,18.00
2010,08,22,10,54,18.10
2010,08,22,10,55,18.10
2010,08,22,10,56,18.00
2010,08,22,10,57,18.00
2010,08,22,10,58,17.90
2010,08,22,10,59,17.90
2010,08,22,11,00,17.80
2010,08,22,11,01,17.70
2010,08,22,11,02,17.70
2010,08,22,11,03,17.60
2010,08,22,11,04,17.60
2010,08,22,11,05,17.50
2010,08,22,11,06,17.50
2010,08,22,11,07,17.40
2010,08,22,11,08,17.30
2010,08,22,11,09,17.30
2010,08,22,11,10,17.20
2010,08,22,11,11,17.20
2010,08,22,11,12,17.10
2010,08,22,11,13,17.10
2010,08,22,11,14,17.10
2010,08,22,11,15,17.10
2010,08,22,11,16,17.10
2010,08,22,11,17,17.20
2010,08,22,11,18,17.20
2010,08,22,11,19,17.20
2010,08,22,11,20,17.20
2010,08,22,11,21,17.20
2010,08,22,11,22,17.20
2010,08,22,11,23,17.20
2010,08,22,11,24,17.20
2010,08,22,11,25,17.20
2010,08,22,11,26,17.20
2010,08,22,11,27,17.20
2010,08,22,11,28,17.20
2010,08,22,11,29,17.20
2010,08,22,11,30,17.30
2010,08,22,11,31,17.30
2010,08,22,11,32,17.40
2010,08,22,11,33,17.50
2010,08,22,11,34,17.60
2010,08,22,11,35,17.60
2010,08,22,11,36,17.70
2010,08,22,11,37,17.70
2010,08,22,11,38,17.70
2010,08,22,11,39,17.80
2010,08,22,11,40,17.70
2010,08,22,11,41,17.70
2010,08,22,11,42,17.70
2010,08,22,11,43,17.70
2010,08,22,11,44,17.70
2010,08,22,11,45,17.70
2010,08,22,11,46,17.70
2010,08,22,11,47,17.70
2010,08,22,11,48,17.70
2010,08,22,11,49,17.70
2010,08,22,11,50,17.70
2010,08,22,11,51,17.70
2010,08,22,11,52,17.70
2010,08,22,11,53,17.70
2010,08,22,11,54,17.70
2010,08,22,11,55,17.70
2010,08,22,11,56,17.70
2010,08,22,11,57,17.70
2010,08,22,11,58,17.70
2010,08,22,11,59,17.70
2010,08,22,12,00,17.70
2010,08,22,12,01,17.70
2010,08,22,12,02,17.70
2010,08,22,12,03,17.70
2010,08,22,12,04,17.70
2010,08,22,12,05,17.70
2010,08,22,12,06,17.70
2010,08,22,12,07,17.70
2010,08,22,12,08,17.80
2010,08,22,12,09,17.80
2010,08,22,12,10,17.80
2010,08,22,12,11,17.80
2010,08,22,12,12,17.80
2010,08,22,12,13,17.80
2010,08,22,12,14,17.90
2010,08,22,12,15,17.90
2010,08,22,12,16,17.90
2010,08,22,12,17,17.90
2010,08,22,12,18,18.00
2010,08,22,12,19,18.00
2010,08,22,12,20,18.10
2010,08,22,12,21,18.10
2010,08,22,12,22,18.10
2010,08,22,12,23,18.20
2010,08,22,12,24,18.20
2010,08,22,12,25,18.20
2010,08,22,12,26,18.20
2010,08,22,12,27,18.20
2010,08,22,12,28,18.20
2010,08,22,12,29,18.30
2010,08,22,12,30,18.40
2010,08,22,12,31,18.50
2010,08,22,12,32,18.60
2010,08,22,12,33,18.70
2010,08,22,12,34,18.80
2010,08,22,12,35,18.90
2010,08,22,12,36,18.90
2010,08,22,12,37,19.00
2010,08,22,12,38,19.10
2010,08,22,12,39,19.10
2010,08,22,12,40,19.20
2010,08,22,12,41,19.20
2010,08,22,12,42,19.20
2010,08,22,12,43,19.20
2010,08,22,12,44,19.20
2010,08,22,12,45,19.20
2010,08,22,12,46,19.10
2010,08,22,12,47,18.90
2010,08,22,12,48,18.90
2010,08,22,12,49,18.80
2010,08,22,12,50,18.80
2010,08,22,12,51,18.70
2010,08,22,12,52,18.60
2010,08,22,12,53,18.60
2010,08,22,12,54,18.50
2010,08,22,12,55,18.50
2010,08,22,12,56,18.40
2010,08,22,12,57,18.40
2010,08,22,12,58,18.40
2010,08,22,12,59,18.40
2010,08,22,13,00,18.40
2010,08,22,13,01,18.40
2010,08,22,13,02,18.40
2010,08,22,13,03,18.40
2010,08,22,13,04,18.40
2010,08,22,13,05,18.50
2010,08,22,13,06,18.70
2010,08,22,13,07,18.80
2010,08,22,13,08,19.00
2010,08,22,13,09,19.10
2010,08,22,13,10,19.30
2010,08,22,13,11,19.30
2010,08,22,13,12,19.40
2010,08,22,13,13,19.40
2010,08,22,13,14,19.50
2010,08,22,13,15,19.60
2010,08,22,13,16,19.60
2010,08,22,13,17,19.60
2010,08,22,13,18,19.50
2010,08,22,13,19,19.40
2010,08,22,13,20,19.40
2010,08,22,13,21,19.40
2010,08,22,13,22,19.30
2010,08,22,13,23,19.20
2010,08,22,13,24,19.10
2010,08,22,13,25,19.10
2010,08,22,13,26,19.10
2010,08,22,13,27,19.00
2010,08,22,13,28,19.00
2010,08,22,13,29,18.90
2010,08,22,13,30,18.90
2010,08,22,13,31,18.80
2010,08,22,13,32,18.70
2010,08,22,13,33,18.70
2010,08,22,13,34,18.70
2010,08,22,13,35,18.60
2010,08,22,13,36,18.50
2010,08,22,13,37,18.40
2010,08,22,13,38,18.40
2010,08,22,13,39,18.30
2010,08,22,13,40,18.20
2010,08,22,13,41,18.10
2010,08,22,13,42,18.00
2010,08,22,13,43,17.90
2010,08,22,13,44,17.80
2010,08,22,13,45,17.80
2010,08,22,13,46,17.70
2010,08,22,13,47,17.70
2010,08,22,13,48,17.70
2010,08,22,13,49,17.70
2010,08,22,13,50,17.80
2010,08,22,13,51,17.80
2010,08,22,13,52,17.90
2010,08,22,13,53,17.90
2010,08,22,13,54,17.90
2010,08,22,13,55,17.80
2010,08,22,13,56,17.80
2010,08,22,13,57,17.80
2010,08,22,13,58,17.90
2010,08,22,13,59,17.90
2010,08,22,14,00,18.00
2010,08,22,14,01,18.10
2010,08,22,14,02,18.10
2010,08,22,14,03,18.10
2010,08,22,14,04,18.10
2010,08,22,14,05,18.00
2010,08,22,14,06,18.00
2010,08,22,14,07,17.90
2010,08,22,14,08,17.90
2010,08,22,14,09,17.90
2010,08,22,14,10,17.90
2010,08,22,14,11,17.90
2010,08,22,14,12,17.90
2010,08,22,14,13,17.90
2010,08,22,14,14,17.90
2010,08,22,14,15,17.90
2010,08,22,14,16,17.80
2010,08,22,14,17,17.80
2010,08,22,14,18,17.70
2010,08,22,14,19,17.70
2010,08,22,14,20,17.70
2010,08,22,14,21,17.70
2010,08,22,14,22,17.80
2010,08,22,14,23,17.90
2010,08,22,14,24,18.00
2010,08,22,14,25,18.20
2010,08,22,14,26,18.40
2010,08,22,14,27,18.60
2010,08,22,14,28,18.70
2010,08,22,14,29,18.80
2010,08,22,14,30,18.80
2010,08,22,14,31,18.90
2010,08,22,14,32,18.90
2010,08,22,14,33,18.90
2010,08,22,14,34,18.80
2010,08,22,14,35,18.80
2010,08,22,14,36,18.90
2010,08,22,14,37,19.00
2010,08,22,14,38,19.10
2010,08,22,14,39,19.00
2010,08,22,14,40,18.90
2010,08,22,14,41,18.80
2010,08,22,14,42,18.70
2010,08,22,14,43,18.70
2010,08,22,14,44,18.60
2010,08,22,14,45,18.50
2010,08,22,14,46,18.40
2010,08,22,14,47,18.30
2010,08,22,14,48,18.30
2010,08,22,14,49,18.30
2010,08,22,14,50,18.30
2010,08,22,14,51,18.30
2010,08,22,14,52,18.30
2010,08,22,14,53,18.30
2010,08,22,14,54,18.40
2010,08,22,14,55,18.40
2010,08,22,14,56,18.50
2010,08,22,14,57,18.60
2010,08,22,14,58,18.70
2010,08,22,14,59,18.80
2010,08,22,15,00,18.90
2010,08,22,15,01,18.90
2010,08,22,15,02,18.90
2010,08,22,15,03,18.90
2010,08,22,15,04,18.80
2010,08,22,15,05,18.70
2010,08,22,15,06,18.70
2010,08,22,15,07,18.70
2010,08,22,15,08,18.60
2010,08,22,15,09,18.60
2010,08,22,15,10,18.60
2010,08,22,15,11,18.70
2010,08,22,15,12,18.70
2010,08,22,15,13,18.70
2010,08,22,15,14,18.70
2010,08,22,15,15,18.70
2010,08,22,15,16,18.60
2010,08,22,15,17,18.60
2010,08,22,15,18,18.70
2010,08,22,15,19,18.70
2010,08,22,15,20,18.70
2010,08,22,15,21,18.70
2010,08,22,15,22,18.70
2010,08,22,15,23,18.70
2010,08,22,15,24,18.70
2010,08,22,15,25,18.70
2010,08,22,15,26,18.60
2010,08,22,15,27,18.50
2010,08,22,15,28,18.40
2010,08,22,15,29,18.30
2010,08,22,15,30,18.30
2010,08,22,15,31,18.20
2010,08,22,15,32,18.20
2010,08,22,15,33,18.30
2010,08,22,15,34,18.30
2010,08,22,15,35,18.40
2010,08,22,15,36,18.50
2010,08,22,15,37,18.60
2010,08,22,15,38,18.70
2010,08,22,15,39,19.00
2010,08,22,15,40,19.10
2010,08,22,15,41,19.10
2010,08,22,15,42,19.20
2010,08,22,15,43,19.20
2010,08,22,15,44,19.30
2010,08,22,15,45,19.50
2010,08,22,15,46,19.60
2010,08,22,15,47,19.70
2010,08,22,15,48,19.70
2010,08,22,15,49,19.70
2010,08,22,15,50,19.70
2010,08,22,15,51,19.70
2010,08,22,15,52,19.50
2010,08,22,15,53,19.40
2010,08,22,15,54,19.20
2010,08,22,15,55,19.20
2010,08,22,15,56,19.20
2010,08,22,15,57,19.30
2010,08,22,15,58,19.40
2010,08,22,15,59,19.40
2010,08,22,16,00,19.60
2010,08,22,16,01,19.70
2010,08,22,16,02,19.90
2010,08,22,16,03,20.00
2010,08,22,16,04,20.00
2010,08,22,16,05,20.00
2010,08,22,16,06,19.90
2010,08,22,16,07,19.90
2010,08,22,16,08,19.90
2010,08,22,16,09,19.90
2010,08,22,16,10,20.00
2010,08,22,16,11,20.00
2010,08,22,16,12,20.00
2010,08,22,16,13,19.90
2010,08,22,16,14,20.00
2010,08,22,16,15,20.00
2010,08,22,16,16,20.10
2010,08,22,16,17,20.30
2010,08,22,16,18,20.40
2010,08,22,16,19,20.40
2010,08,22,16,20,20.50
2010,08,22,16,21,20.50
2010,08,22,16,22,20.50
2010,08,22,16,23,20.60
2010,08,22,16,24,20.60
2010,08,22,16,25,20.60
2010,08,22,16,26,20.60
2010,08,22,16,27,20.50
2010,08,22,16,28,20.40
2010,08,22,16,29,20.50
2010,08,22,16,30,20.50
2010,08,22,16,31,20.40
2010,08,22,16,32,20.50
2010,08,22,16,33,20.50
2010,08,22,16,34,20.40
2010,08,22,16,35,20.20
2010,08,22,16,36,20.20
2010,08,22,16,37,20.10
2010,08,22,16,38,20.00
2010,08,22,16,39,19.80
2010,08,22,16,40,19.70
2010,08,22,16,41,19.60
2010,08,22,16,42,19.40
2010,08,22,16,43,19.20
2010,08,22,16,44,19.10
2010,08,22,16,45,19.10
2010,08,22,16,46,19.00
2010,08,22,16,47,19.10
2010,08,22,16,48,19.20
2010,08,22,16,49,19.30
2010,08,22,16,50,19.30
2010,08,22,16,51,19.30
2010,08,22,16,52,19.30
2010,08,22,16,53,19.30
2010,08,22,16,54,19.30
2010,08,22,16,55,19.30
2010,08,22,16,56,19.30
2010,08,22,16,57,19.30
2010,08,22,16,58,19.30
2010,08,22,16,59,19.30
2010,08,22,17,00,19.30
2010,08,22,17,01,19.20
2010,08,22,17,02,19.20
2010,08,22,17,03,19.20
2010,08,22,17,04,19.20
2010,08,22,17,05,19.20
2010,08,22,17,06,19.20
2010,08,22,17,07,19.20
2010,08,22,17,08,19.30
2010,08,22,17,09,19.30
2010,08,22,17,10,19.20
2010,08,22,17,11,19.20
2010,08,22,17,12,19.20
2010,08,22,17,13,19.10
2010,08,22,17,14,19.00
2010,08,22,17,15,19.00
2010,08,22,17,16,18.90
2010,08,22,17,17,18.80
2010,08,22,17,18,18.80
2010,08,22,17,19,18.70
2010,08,22,17,20,18.70
2010,08,22,17,21,18.70
2010,08,22,17,22,18.70
2010,08,22,17,23,18.70
2010,08,22,17,24,18.70
2010,08,22,17,25,18.70
2010,08,22,17,26,18.60
2010,08,22,17,27,18.60
2010,08,22,17,28,18.60
2010,08,22,17,29,18.50